Location: Boiro
(42.6475°N, 8.8834°W)
Time: 07:31:59
(UTC+01:00)

SR - Pass Details

Date: 04 December 2021
Orbit: 583 x 872 km, 66.7° (Epoch: 16 January)

Event Time Altitude Azimuth Distance (km) Brightness Sun altitude
Rises 09:12:45 0° 334° (NNW) 2,822 ? 2.8°
Reaches altitude 10° 09:15:02 10° 341° (NNW) 1,933 ? 3.2°
Maximum altitude 09:19:11 44° 54° (NE) 856 ? 3.8°
Drops below altitude 10° 09:23:31 10° 127° (SE) 2,028 ? 4.4°
Sets 09:25:58 0° 134° (SE) 2,978 ? 4.8°
